Miscellaneous Local Product
Issued by NWS Hastings, NE

Home | Current Version | Previous Version | Graphics & Text | Print | Product List | Glossary On
Versions: 1 2 3 4 5 6 7 8 9 10 11 12 13 14 15 16 17 18 19 20 21 22 23 24 25 26 27 28 29 30 31 32 33 34 35 36 37 38 39 40 41 42 43 44 45 46 47 48 49 50
635
AXUS43 KGID 250402
MISGRI

GID CWA HOURLY WEATHER ROUNDUP
NATIONAL WEATHER SERVICE HASTINGS NE
1100 PM CDT WED MAY 24 2017

NOTE: "FAIR" INDICATES FEW OR NO CLOUDS BELOW 12,000 FEET WITH NO
SIGNIFICANT WEATHER AND/OR OBSTRUCTIONS TO VISIBILITY.

...SOUTH CENTRAL NEBRASKA...

CITY           SKY/WX    TMP DP  RH WIND       PRES   REMARKS
GRAND ISLAND   CLEAR     56  46  69 SE10      29.65S
HASTINGS       CLEAR     56  45  66 SE12      29.65S
KEARNEY        CLEAR     55  43  62 SE16      29.63S
ORD            CLEAR     55  41  59 SE10      29.59S
YORK           CLEAR     55  45  67 S6        29.67R
AURORA         CLEAR     54  44  67 SE7       29.66R
LEXINGTON      CLEAR     58  44  59 SE15      29.59S
HOLDREGE       CLEAR     55  42  61 SE14      29.62S
HEBRON         CLEAR     55  47  75 S6        29.68R

...NEBRASKA PANHANDLE...

CITY           SKY/WX    TMP DP  RH WIND       PRES   REMARKS
CHADRON        CLOUDY    68  45  43 S25G36    29.35R
ALLIANCE       CLEAR     60  46  59 SE16      29.45R
SCOTTSBLUFF    CLEAR     69  41  36 W6        29.45R
SIDNEY         CLEAR     56  48  74 E7        29.52R

...WESTERN AND NORTH CENTRAL NEBRASKA...

CITY           SKY/WX    TMP DP  RH WIND       PRES   REMARKS
VALENTINE      CLEAR     61  40  45 SE17      29.47S
AINSWORTH      CLEAR     57  43  59 S18       29.51F
ONEILL         CLEAR     57  41  55 SE14      29.58F
BROKEN BOW     CLEAR     56  44  64 S14       29.59R
IMPERIAL       CLEAR     60  44  55 SE18      29.54R
NORTH PLATTE   CLEAR     58  42  55 SE13      29.55S
MCCOOK         CLEAR     58  44  60 SE13      29.58S

...EASTERN NEBRASKA...

CITY           SKY/WX    TMP DP  RH WIND       PRES   REMARKS
NORFOLK        CLEAR     52  43  71 SE8       29.64S
SO SIOUX CITY  CLEAR     51  46  83 SE7       29.66S
TEKAMAH        CLEAR     55  32  41 CALM      29.67S
ALBION         CLEAR     53  43  68 SE8       29.63F
OMAHA EPPLEY   CLEAR     56  45  66 CALM      29.68S
OFFUTT AFB     CLEAR     49  47  93 NE3       29.68R
MILLARD        CLEAR     54  49  82 CALM      29.68S
LINCOLN        CLEAR     55  45  68 SE5       29.69R
NEBRASKA CITY  CLEAR     59  37  42 CALM      29.69R
BEATRICE       CLEAR     57  46  66 SE5       29.69R
FALLS CITY     CLEAR     57  45  64 SE5       29.69R

...NORTHERN KANSAS...

CITY           SKY/WX    TMP DP  RH WIND       PRES   REMARKS
GOODLAND       CLEAR     59  46  62 S15       29.58R
HILL CITY      CLEAR     56  47  71 SE8       29.63R
NORTON         CLEAR     54  41  62 SE10      29.61R
PHILLIPSBURG   CLEAR     55  46  71 SE10      29.64R
SMITH CENTER   CLOUDY    52  46  82 E12       29.65F
HAYS           CLEAR     54  47  77 SE12      29.64F
RUSSELL        CLEAR     53  46  77 SE10      29.64F
CONCORDIA      CLEAR     50  45  83 S7        29.68R
SALINA         CLEAR     57  46  66 SE6       29.69S
TOPEKA         CLEAR     55  51  86 CALM      29.70R



USA.gov is the U.S. government's official web portal to all federal, state and local government web resources and services.